NOAA NWS Hourly Roundups by Site

Regional Weather Roundup for Omaha, NE

To Select Another Site Choose from List

Select Site:  

000
ASUS43 KOAX 190110
RWRNE

WEATHER ROUNDUP FOR NEBRASKA
NATIONAL WEATHER SERVICE OMAHA NE
700 PM CST SAT JAN 18 2020

NOTES: SATELLITE DATA IS BEING USED TO AUGMENT CLOUD COVER ABOVE
       12000 FEET.
       "FAIR" INDICATES FEW OR NO CLOUDS BELOW 12,000 FEET WITH NO
       SIGNIFICANT WEATHER AND/OR OBSTRUCTIONS TO VISIBILITY.


NEZ001>004-019>022-054>056-190200-
NEBRASKA PANHANDLE

CITY           SKY/WX    TMP DP  RH WIND       PRES   REMARKS
SCOTTSBLUFF    FAIR      30  14  51 NW8       30.29R WCI  22
ALLIANCE       FAIR      27  11  51 N3        30.29R
CHADRON        FAIR      20  12  71 W7        30.32R WCI  11
GORDON         FAIR      19  11  71 NW5       30.29R WCI  13
KIMBALL        FAIR      32  10  40 W12       30.30R WCI  23
SIDNEY         FAIR      25   6  44 W9        30.31R WCI  15
$$

NEZ057>060-069>072-079>082-190200-
SOUTHWEST NEBRASKA

CITY           SKY/WX    TMP DP  RH WIND       PRES   REMARKS
NORTH PLATTE   FAIR      24  15  68 NW3       30.33R
IMPERIAL       FAIR      28   9  44 CALM      30.34R
LEXINGTON      FAIR      29  23  78 SW7       30.34R WCI  22
MCCOOK         FAIR      29  19  66 SW7       30.36R WCI  22
OGALLALA       FAIR      26  13  58 S3        30.33R
$$

NEZ005>010-023>029-035>040-094-190200-
NORTH CENTRAL NEBRASKA

CITY           SKY/WX    TMP DP  RH WIND       PRES   REMARKS
VALENTINE      FAIR      21  11  65 W8        30.32R WCI  11
AINSWORTH      FAIR      24  12  62 NW8       30.31S WCI  14
BROKEN BOW     FAIR      23  11  60 CALM      30.31R
O`NEILL        FAIR      14   6  69 NW13      30.33R WCI   0
ORD            FAIR      22  11  62 VRB5      30.32R WCI  16
THEDFORD       FAIR      21  13  71 CALM      30.31S
$$

NEZ041-046>049-061>064-073>077-083>087-190200-
SOUTH CENTRAL NEBRASKA

CITY           SKY/WX    TMP DP  RH WIND       PRES   REMARKS
GRAND ISLAND   FAIR      25  14  63 W9        30.34R WCI  15
AURORA         FAIR      28  18  64 W14       30.34R WCI  17
HASTINGS       FAIR      26  18  71 NW8       30.34S WCI  18
HEBRON         FAIR      30  21  70 W5        30.37R WCI  25
HOLDREGE       FAIR      29  23  77 S5        30.35R WCI  24
KEARNEY        FAIR      30  22  72 W6        30.35R WCI  24
YORK           FAIR      19  14  79 N3        30.34R
$$

NEZ011>018-030>034-042>045-190200-
NORTHEAST NEBRASKA

CITY           SKY/WX    TMP DP  RH WIND       PRES   REMARKS
NORFOLK        FAIR       8  -1  66 N9        30.34R WCI  -5
ALBION         FAIR      20  10  65 N10       30.33R WCI   9
BLAIR          FAIR      13   4  67 NW9       30.33R WCI   1
COLUMBUS       FAIR      10   4  76 NW3       30.36R
FREMONT        FAIR      11   5  77 NW7       30.36R WCI   0
TEKAMAH        FAIR      10  -1  61 NW24G33   30.38R WCI -10
WAYNE          FAIR       7  -2  66 NW15      30.34R WCI -11
$$

NEZ050>053-065>068-078-088>093-190200-
SOUTHEAST NEBRASKA

CITY           SKY/WX    TMP DP  RH WIND       PRES   REMARKS
LINCOLN        FAIR      21  12  68 NW6       30.38R WCI  13
OMAHA EPPLEY   MOCLDY    13   3  64 NW15      30.36R WCI  -3
BEATRICE       FAIR      28  17  62 W9        30.37R WCI  19
FALLS CITY     FAIR      21  13  71 W5        30.37R WCI  15
NEBRASKA CITY  FAIR      20  13  73 NW9       30.35R WCI   9
PLATTSMOUTH    FAIR      17   8  68 NW12G17   30.35R WCI   4
$$

NEZ044-045-051>053-067-190200-
OMAHA AREA

CITY           SKY/WX    TMP DP  RH WIND       PRES   REMARKS
OMAHA EPPLEY   MOCLDY    13   3  64 NW15      30.36R WCI  -3
BLAIR          FAIR      13   4  67 NW9       30.33R WCI   1
FREMONT        FAIR      11   5  77 NW7       30.36R WCI   0
MILLARD        FAIR      18   6  58 NW10G17   30.36R WCI   6
OFFUTT AFB     CLEAR     16   5  62 NW14      30.36R WCI   1
PLATTSMOUTH    FAIR      17   8  68 NW12G17   30.35R WCI   4
WAHOO          FAIR      15   7  71 NW6       30.36R WCI   7
$$


 

View Past Reports for Omaha, NE.

Products Courtesy of NOAA-NWS
NWS Information Parsing Script by Ken True at Saratoga Weather - Script by SE Lincoln Weather.